Regional Weather Roundup
Issued by NWS

Home | Current Version | Previous Version | Text Only | Print | Product List | Glossary Off
Versions: 1 2 3 4 5 6 7 8 9 10 11 12 13 14 15 16 17 18 19 20 21 22 23 24 25 26 27 28 29 30 31 32 33 34 35 36 37 38 39 40 41 42 43 44 45 46 47 48 49 50

000
ASUS43 KLOT 280110
RWRIL

ILLINOIS REGIONAL WEATHER ROUNDUP
NATIONAL WEATHER SERVICE CHICAGO/ROMEOVILLE IL
700 PM CST THU NOV 27 2014

NOTE: "FAIR" INDICATES FEW OR NO CLOUDS BELOW 12,000 FEET WITH NO
SIGNIFICANT WEATHER AND/OR OBSTRUCTIONS TO VISIBILITY.

* THESE STATIONS ARE NOT UNDER NWS QUALITY CONTROL. THEY ALSO MAY NOT
  REPORT WEATHER SUCH AS PRECIPITATION OR FOG.

ILZ001-002-007-009-015-016-024-280200-
NORTHWEST ILLINOIS

CITY           SKY/WX    TMP DP  RH WIND       PRES   REMARKS
MOLINE         PTCLDY    12   4  70 SW5       30.44F WCI   4
STERLING*      PTCLDY    12   3  67 W6        30.41F WCI   3
SAVANNA*       PTCLDY    15   2  54 NW5       30.42F WCI   8
$$

ILZ003-004-008-010-011-017-018-280200-
NORTH CENTRAL ILLINOIS

CITY           SKY/WX    TMP DP  RH WIND       PRES   REMARKS
ROCKFORD       CLEAR     14   5  67 NW7       30.42F WCI   4
FREEPORT*      PTCLDY    11   2  66 W3        30.41F
ROCHELLE*      PTCLDY    14   8  76 NW5       30.41F WCI   6
DE KALB*       CLEAR     11   6  81 W6        30.39F WCI   2
PERU*          CLOUDY    18  12  78 W9        30.43F WCI   6
$$

ILZ005-006-012>014-019>023-280200-
NORTHEAST ILLINOIS

CITY           SKY/WX    TMP DP  RH WIND       PRES   REMARKS
CHICAGO-OHARE  MOCLDY    19  10  68 NW7       30.39S WCI  10
CHICAGO-MIDWAY MOCLDY    23  11  60 N10       30.40S WCI  12
AURORA         MOCLDY    13   7  77 W6        30.40F WCI   4
LANSING*       LGT SNOW  24  17  74 W7        30.40S WCI  16
JOLIET*        CLEAR     19  12  73 CALM      30.41F
WAUKEGAN       PTCLDY    16  11  80 NW3       30.39F
DUPAGE AIRPORT CLOUDY    20  12  71 N6        30.39F WCI  12
KANKAKEE*      FLURRIES N/A N/A N/A NW6       30.42S
WHEELING       CLEAR     17   9  70 NW5       30.42S WCI  10
MORRIS*        MOCLDY    20  15  79 NW3       30.41S
ROMEOVILLE*    CLEAR     18  13  82 NW3       30.40F
NORTHERLY ISL    N/A     23  12  62 NW7         N/A  WCI  15
$$

LMZ740>746-280200-
SOUTHERN LAKE MICHIGAN

STATION/POSITION SKY/WX   TEMP    WIND        PRES    VSBY  WAVE
                          AIR SEA DIR/SP/G                  HT/PER
                          (F)     (DEG/KT/KT) (MB)    (MI)  (FT/S)
SOUTHERN BUOY              24 42  300/ 14/ 17 1029.5R         5/ 7
WAUKEGAN HARBOR            19     320/  4/ 10   N/A
HARRISON CRIB              21     320/ 14/ 18   N/A
BURNHAM HARBOR             22     320/  6/ 11   N/A
CALUMET HARBOR             23     300/  6/ 10 1028.0S
MICHIGAN CITY              25     270/ 14/ 17   N/A
$$

ILZ025>027-034>036-040-047-049-050-058-095>099-280200-
WEST-CENTRAL ILLINOIS

CITY           SKY/WX    TMP DP  RH WIND       PRES   REMARKS
QUINCY         PTCLDY    17   7  64 E7        30.44F WCI   8
GALESBURG*     CLEAR      8   4  82 NW3       30.43F
MACOMB*        PTCLDY     8   0  68 W3        30.48F
JACKSONVILLE*  CLEAR     18  12  77 NW3       30.47F
PITTSFIELD*    PTCLDY    20  15  80 N5        30.47F WCI  14
$$

ILZ028>032-037-038-041>044-048-051>054-059>061-280200-
CENTRAL ILLINOIS

CITY           SKY/WX    TMP DP  RH WIND       PRES   REMARKS
PONTIAC        CLEAR     19  15  83 W7        30.44S WCI  10
BLOOMINGTON    FLURRIES  19  12  74 NW12      30.43S WCI   7
DECATUR        PTCLDY    19  10  68 W9        30.46S WCI   8
PEORIA         PTCLDY    15   7  70 W6        30.46F WCI   6
LACON*         PTCLDY    16   8  71 W5        30.44F WCI   8
LINCOLN*       PTCLDY    17   6  62 NW5       30.49S WCI  10
SPRINGFIELD    PTCLDY    14   8  77 CALM      30.48S
TAYLORVILLE    PTCLDY    18  12  79 NW6       30.48S WCI   9
$$

ILZ033-039-045-046-055>057-062-063-280200-
EAST-CENTRAL ILLINOIS

CITY           SKY/WX    TMP DP  RH WIND       PRES   REMARKS
CHAMPAIGN      CLOUDY    22  17  81 W12       30.44R WCI  10
DANVILLE*      CLOUDY    24  15  70 NW10      30.40S WCI  13
RANTOUL*       CLOUDY    25  17  69 NW8       30.42S WCI  17
MATTOON        MOCLDY    21  14  74 NW13      30.45R WCI   9
PARIS*         CLOUDY    23  20  88 W12       30.45S WCI  12
$$

ILZ079-100>102-280200-
SOUTHWEST ILLINOIS

CITY           SKY/WX    TMP DP  RH WIND       PRES   REMARKS
ALTON          CLEAR     23  18  80 CALM      30.48R
BELLEVILLE     CLEAR     26  20  78 N6        30.47S WCI  20
CAHOKIA*       CLEAR     28  18  66 N5        30.47F WCI  23
SPARTA*        CLEAR     23  21  91 CALM      30.48F
$$

ILZ064>066-069>071-074>076-080>082-084>086-088>090-092>094-280200-
SOUTH-CENTRAL ILLINOIS

CITY           SKY/WX    TMP DP  RH WIND       PRES   REMARKS
CARBONDALE     CLEAR     29  24  82 CALM      30.48R
CAIRO*         PTCLDY    33  27  80 CALM      30.49R
EFFINGHAM*     CLEAR     20  12  73 NW6       30.48R WCI  12
MARION         CLEAR     27  23  86 CALM      30.49R
MT. VERNON     CLEAR     25  18  74 CALM      30.48S
CENTRALIA*     CLEAR     22  17  81 CALM      30.48R
SALEM*           N/A     23  18  81 N3        30.48R
METROPOLIS*    MOCLDY    29  27  92 CALM        N/A  FOG
$$

ILZ067-068-072-073-078-083-087-091-280200-
SOUTHEAST ILLINOIS

CITY           SKY/WX    TMP DP  RH WIND       PRES   REMARKS
LAWRENCEVILLE  CLOUDY    27  19  72 NW13      30.47R WCI  16
FLORA*         PTCLDY    23  18  81 NW6       30.49R WCI  16
FAIRFIELD*     CLEAR     24  21  89 CALM      30.48R
HARRISBURG*    CLEAR     26  23  89 CALM      30.50R
ROBINSON*      CLOUDY    27  21  79 NW10      30.48R WCI  17
CARMI*         CLEAR     28  26  93 W3        30.48S
$$

ABBREVIATIONS USED IN REMARKS
   TC - TEMPERATURE IN CELSIUS
  WCI - WIND CHILL INDEX
   HX - HEAT INDEX
  VSB - VISIBILITY
$$




USA.gov is the U.S. government's official web portal to all federal, state and local government web resources and services.